Location: Banios
(43.0451°N, 0.2335°E)
Time: 08:47:31
(UTC+00:00)

A-11 Canister half - Pass Details

Date: 16 May 2021
Orbit: 1527 x 1681 km, 47.3° (Epoch: 22 June)

Event Time Altitude Azimuth Distance (km) Brightness Sun altitude
Rises 16:20:57 0° 291° (WNW) 4,877 12.6 30.1°
Reaches altitude 10° 16:25:16 10° 275° (W) 3,908 12.8 29.3°
Maximum altitude 16:31:36 19° 235° (SW) 3,251 11.8 28.2°
Drops below altitude 10° 16:38:01 10° 195° (SSW) 3,932 11.4 27.0°
Sets 16:42:26 0° 178° (S) 4,917 11.6 26.2°
